[[{"header":{"parameterUnit":"m.s-1","parameterCategory":1,"la1":30.2991,"la2":30.254,"lo1":-89.0895,"lo2":-89.0444,"dy":0.0017,"dx":0.0017,"nx":28,"ny":28,"refTime":"2024-12-26T03:00:00:Z","depth":0,"parameterNumber":2,"parameterNumberName":"U-component_of_WINDS"},"data":[0,0,0,0,0,0,0,0,0,0,0,0,0,0,0,0,0,0,0,0,0,0,0,0,0,0,0,0,0,0,0,0,0,0,0,0,0,0,0,0,0,0,0,0,0,0,0,0,0,0,0,0,0,0,0,0,0,0,-4.8469,-4.8469,0,-4.8444,-4.8443,-4.8443,-4.8264,-4.8259,-4.8255,-4.8251,-4.8233,-4.8236,-4.824,0,0,0,0,0,0,0,0,0,0,0,0,0,-4.8372,-4.8375,-4.847,-4.8469,-4.8469,-4.8444,-4.8443,-4.8443,-4.8264,-4.8259,-4.8254,-4.8249,-4.8231,-4.8236,-4.824,0,0,0,0,0,0,0,0,0,0,0,0,0,-4.8388,-4.8376,-4.847,-4.8376,-4.8368,-4.8444,-4.8443,-4.8443,-4.8266,-4.8259,-4.8252,-4.8246,-4.823,-4.8235,-4.8241,-4.8407,0,0,-4.8257,-4.826,0,0,0,0,0,0,0,0,-4.8387,-4.8392,-4.839,-4.8383,-4.8373,-4.835,-4.8402,-4.8431,-4.8267,-4.8305,-4.8251,-4.8243,-4.8278,-4.8279,-4.8289,-4.8406,-4.8405,-4.8258,-4.8261,-4.8263,-4.8265,0,0,0,0,0,0,0,-4.8386,-4.8392,-4.8459,-4.8391,-4.838,-4.8339,-4.8334,-4.8407,-4.8329,-4.8301,-4.8288,-4.8287,-4.8272,-4.8284,-4.8287,-4.8405,-4.8258,-4.8262,-4.8266,-4.8268,-4.8659,-4.8666,0,0,0,0,0,0,-4.8397,-4.8392,-4.846,-4.8459,-4.8364,-4.8346,-4.834,-4.8364,-4.8327,-4.8315,-4.8292,-4.8278,-4.8278,-4.8281,-4.8286,-4.8479,-4.8263,-4.8268,-4.8272,-4.8652,-4.8661,-4.8669,0,0,0,0,0,0,-4.8396,-4.8405,-4.8461,-4.8422,-4.8426,-4.8354,-4.8383,-4.8367,-4.8379,-4.8321,-4.8307,-4.8319,-4.8273,-4.8278,-4.8378,-4.8476,-4.8271,-4.8276,-4.8644,-4.8655,-4.8665,-4.8867,0,0,0,0,0,0,-4.8394,-4.8405,-4.8466,-4.8424,-4.8428,-4.8552,-4.8389,-4.8372,-4.8388,-4.8369,-4.8342,-4.8331,-4.8268,-4.8371,-4.8383,-4.848,-4.828,-4.8635,-4.8649,-4.8661,-4.8851,-4.8883,-4.8911,0,0,0,0,0,-4.8391,-4.8525,-4.847,-4.8479,-4.8502,-4.8558,-4.8561,-4.8483,-4.8396,-4.8458,-4.8421,-4.8332,-4.8463,-4.8382,-4.8395,-4.8495,-4.8628,-4.8645,-4.866,-4.8838,-4.8877,-4.891,0,0,0,0,0,0,-4.8582,-4.8518,-4.8456,-4.858,-4.8576,-4.8527,-4.8602,-4.8526,-4.8549,-4.8531,-4.8436,-4.8431,-4.8546,-4.853,-4.8442,-4.8655,-4.853,-4.855,-4.8661,-4.8698,-4.8727,-4.8729,-4.8285,0,0,0,0,0,-4.8639,-4.8687,-4.8629,-4.8744,-4.8745,-4.8675,-4.8696,-4.8637,-4.8629,-4.8627,-4.8597,-4.8596,-4.8637,-4.8666,-4.87,-4.8847,-4.8841,-4.8922,-4.8952,-4.8977,-4.8996,-4.9075,-4.9111,-4.8721,-4.8721,-4.8721,0,0,-4.8756,-4.8727,-4.8764,-4.8782,-4.8771,-4.8827,-4.8674,-4.8739,-4.8779,-4.8638,-4.873,-4.8709,-4.8701,-4.8826,-4.888,-4.8816,-4.9101,-4.8997,-4.9017,-4.9022,-4.9095,-4.9132,-4.9165,-4.8732,-4.873,-4.8728,0,0,-4.8999,-4.898,-4.9075,-4.9067,-4.9053,-4.9005,-4.9029,-4.8992,-4.8972,-4.9062,-4.8958,-4.9006,-4.9078,-4.9077,-4.9087,-4.9331,-4.9251,-4.9345,-4.9501,-4.9579,-4.961,-4.9637,-4.9726,-4.9759,-4.9363,-4.9363,-4.9364,0,-4.9148,-4.9223,-4.9134,-4.9205,-4.9218,-4.909,-4.9187,-4.9185,-4.9184,-4.9197,-4.9125,-4.9213,-4.9199,-4.9323,-4.9383,-4.9394,-4.942,-4.9348,-4.9612,-4.9638,-4.9662,-4.9746,-4.978,-4.9375,-4.9374,-4.9373,-4.9371,0,-4.9408,-4.9463,-4.9542,-4.9542,-4.9563,-4.9647,-4.9574,-4.9607,-4.9546,-4.9507,-4.9603,-4.9581,-4.9609,-4.9634,-4.9576,-4.9751,-4.9712,-4.9628,-4.9502,-4.9712,-4.979,-4.9822,-4.9392,-4.9388,-4.9384,-4.9381,0,0,-4.9772,-4.9721,-4.9751,-4.975,-4.9725,-4.9767,-4.9847,-4.9872,-4.9904,-4.9908,-4.9974,-5.0038,-4.996,-4.9971,-4.9912,-4.998,-5.0178,-4.9887,-4.9886,-4.9944,-5.0373,-5.0439,-5.0477,-5.0124,-5.013,-5.0134,-5.0375,0,-5.0006,-5.0136,-5.0059,-5.0203,-5.0254,-5.0133,-5.0203,-5.0197,-5.0164,-5.0204,-5.0168,-5.0216,-5.0107,-5.0113,-5.0176,-5.0141,-5.0264,-5.0122,-5.0189,-5.0192,-5.0196,-5.0517,-5.0586,-5.0814,-5.0404,-5.0409,-5.0413,0,-5.0297,-5.0311,-5.046,-5.0426,-5.0444,-5.0508,-5.0526,-5.0566,-5.0558,-5.0529,-5.0541,-5.0466,-5.0545,-5.0419,-5.0528,-5.0434,-5.0457,-5.0444,-5.0451,-5.0456,-5.0317,-5.0534,-5.0885,-5.092,-5.046,-5.0456,-5.0453,0,-5.055,-5.0607,-5.0702,-5.0705,-5.0668,-5.0716,-5.0704,-5.0688,-5.0709,-5.0726,-5.0739,-5.0767,-5.0782,-5.0806,-5.0741,-5.0655,-5.0861,-5.0729,-5.0842,-5.0844,-5.0892,-5.0891,-5.1255,-5.0904,-5.0903,-5.0903,-5.0902,0,-5.0821,-5.0917,-5.0816,-5.0876,-5.0981,-5.0892,-5.0999,-5.0974,-5.0962,-5.1017,-5.0915,-5.0969,-5.0879,-5.0926,-5.0875,-5.0975,-5.0983,-5.0964,-5.095,-5.0974,-5.0977,-5.0989,-5.0973,-5.0912,-5.091,-5.0908,-5.0906,0,-5.1122,-5.1057,-5.1155,-5.1111,-5.1102,-5.1182,-5.1146,-5.1201,-5.116,-5.1232,-5.1243,-5.1181,-5.123,-5.1167,-5.1211,-5.1177,-5.1314,-5.1276,-5.1317,-5.1307,-5.1424,-5.1415,-5.181,-5.1859,-5.1476,-5.1479,-5.1483,0,-5.13,-5.1371,-5.1334,-5.1362,-5.1355,-5.1402,-5.1422,-5.1339,-5.1365,-5.1362,-5.1419,-5.1459,-5.1487,-5.1572,-5.1532,-5.1566,-5.1529,-5.1665,-5.1534,-5.1557,-5.1534,-5.1531,-5.1539,-5.1693,-5.1698,-5.1701,-5.1704,0,-5.1624,-5.1588,-5.162,-5.1642,-5.1669,-5.1683,-5.1689,-5.1719,-5.1632,-5.1667,-5.1715,-5.1737,-5.1781,-5.1824,-5.1847,-5.1836,-5.1759,-5.1746,-5.1774,-5.1801,-5.1823,-5.1815,-5.1393,-5.1738,-5.1734,-5.1732,-5.173,-5.1729,-5.187,-5.1928,-5.1912,-5.1951,-5.1947,-5.1956,-5.2006,-5.1971,-5.2008,-5.2036,-5.1985,-5.2048,-5.204,-5.2062,-5.2061,-5.2111,-5.2052,-5.2093,-5.2104,-5.2116,-5.2135,-5.1813,-5.2115,-5.2113,-5.2112,-5.2112,-5.2111,0,-5.219,-5.2174,-5.2211,-5.2222,-5.2255,-5.2174,-5.2178,-5.2211,-5.2266,-5.2264,-5.2293,-5.235,-5.2391,-5.2355,-5.239,-5.2436,-5.2402,-5.2449,-5.2445,-5.2445,-5.2184,-5.2157,-5.2476,-5.2476,-5.2476,-5.2476,-5.2476,-5.2476,-5.2361,-5.2455,-5.2419,-5.2512,-5.2495,-5.2553,-5.2562,-5.2571,-5.2569,-5.2636,-5.2669,-5.2644,-5.2629,-5.2662,-5.2698,-5.2686,-5.2705,-5.2765,-5.2742,-5.2499,-5.2463,-5.2429,-5.2403,-5.277,-5.277,-5.2999,-5.3001,-5.3003]},{"header":{"parameterUnit":"m.s-1","parameterCategory":1,"la1":30.2991,"la2":30.254,"lo1":-89.0895,"lo2":-89.0444,"dy":0.0017,"dx":0.0017,"nx":28,"ny":28,"refTime":"2024-12-26T03:00:00:Z","depth":0,"parameterNumber":3,"parameterNumberName":"V-component_of_WINDS"},"data":[0,0,0,0,0,0,0,0,0,0,0,0,0,0,0,0,0,0,0,0,0,0,0,0,0,0,0,0,0,0,0,0,0,0,0,0,0,0,0,0,0,0,0,0,0,0,0,0,0,0,0,0,0,0,0,0,0,0,-3.1587,-3.1587,0,-3.1659,-3.166,-3.166,-3.1651,-3.165,-3.1649,-3.1648,-3.1718,-3.1721,-3.1724,0,0,0,0,0,0,0,0,0,0,0,0,0,-3.1437,-3.1439,-3.1587,-3.1588,-3.1588,-3.1659,-3.166,-3.1661,-3.1651,-3.165,-3.1649,-3.1647,-3.1717,-3.1721,-3.1725,0,0,0,0,0,0,0,0,0,0,0,0,0,-3.1504,-3.144,-3.1586,-3.1592,-3.1594,-3.1659,-3.166,-3.1661,-3.1652,-3.165,-3.1648,-3.1647,-3.1716,-3.1721,-3.1725,-3.1788,0,0,-3.1739,-3.1741,0,0,0,0,0,0,0,0,-3.1501,-3.151,-3.1591,-3.1592,-3.1594,-3.1644,-3.1633,-3.1703,-3.1652,-3.163,-3.1648,-3.1646,-3.1695,-3.1701,-3.1718,-3.1791,-3.1794,-3.1739,-3.1742,-3.1744,-3.1745,0,0,0,0,0,0,0,-3.1496,-3.1507,-3.1615,-3.1592,-3.1594,-3.159,-3.1598,-3.1646,-3.1671,-3.1631,-3.1631,-3.164,-3.1695,-3.1714,-3.172,-3.1795,-3.1739,-3.1743,-3.1746,-3.1747,-3.1921,-3.1923,0,0,0,0,0,0,-3.149,-3.1503,-3.1613,-3.1617,-3.1542,-3.1594,-3.1603,-3.163,-3.1671,-3.1675,-3.1641,-3.1639,-3.1707,-3.1715,-3.1722,-3.1798,-3.1744,-3.1748,-3.175,-3.1919,-3.1922,-3.1924,0,0,0,0,0,0,-3.1487,-3.15,-3.161,-3.156,-3.1574,-3.1599,-3.1629,-3.1632,-3.1651,-3.1678,-3.1682,-3.1656,-3.1706,-3.1716,-3.1771,-3.18,-3.175,-3.1754,-3.1917,-3.192,-3.1923,-3.195,0,0,0,0,0,0,-3.1483,-3.1499,-3.1524,-3.1561,-3.1576,-3.1659,-3.1631,-3.1635,-3.1659,-3.1657,-3.1693,-3.1697,-3.1706,-3.1765,-3.1776,-3.1805,-3.1757,-3.1915,-3.1918,-3.1922,-3.1946,-3.1953,-3.1959,0,0,0,0,0,-3.1478,-3.1528,-3.1526,-3.1539,-3.1609,-3.1661,-3.167,-3.1679,-3.1661,-3.1686,-3.1703,-3.1696,-3.1795,-3.1771,-3.1783,-3.1814,-3.1913,-3.1917,-3.1922,-3.1944,-3.1952,-3.1959,0,0,0,0,0,0,-3.1493,-3.1533,-3.1531,-3.1595,-3.1625,-3.1659,-3.1691,-3.1688,-3.1722,-3.1719,-3.1728,-3.1736,-3.1792,-3.1809,-3.1781,-3.1876,-3.1851,-3.1858,-3.1864,-3.1872,-3.1878,-3.1873,-3.1761,0,0,0,0,0,-3.1505,-3.1545,-3.1577,-3.1631,-3.1646,-3.1666,-3.1689,-3.1694,-3.1724,-3.1737,-3.1758,-3.1787,-3.1824,-3.1849,-3.1885,-3.1949,-3.1956,-3.1976,-3.1982,-3.1987,-3.1993,-3.2027,-3.2037,-3.1938,-3.1938,-3.1938,0,0,-3.1528,-3.1555,-3.1579,-3.1635,-3.1658,-3.1699,-3.1676,-3.172,-3.175,-3.1743,-3.1797,-3.1813,-3.1846,-3.1906,-3.1933,-3.1921,-3.2022,-3.1993,-3.1997,-3.2,-3.2033,-3.2042,-3.205,-3.1941,-3.1941,-3.194,0,0,-3.1591,-3.1616,-3.1663,-3.1687,-3.1723,-3.1736,-3.1747,-3.1782,-3.1793,-3.1848,-3.1843,-3.1878,-3.1942,-3.1966,-3.1986,-3.2057,-3.2052,-3.2069,-3.2102,-3.2135,-3.2142,-3.2149,-3.2174,-3.2183,-3.2074,-3.2074,-3.2075,0,-3.1615,-3.1677,-3.1687,-3.1732,-3.1755,-3.1752,-3.1799,-3.1821,-3.1867,-3.1883,-3.1869,-3.195,-3.1972,-3.2037,-3.2054,-3.2071,-3.2083,-3.2065,-3.2141,-3.2148,-3.2154,-3.2178,-3.2187,-3.2076,-3.2076,-3.2076,-3.2076,0,-3.1704,-3.1747,-3.1781,-3.1826,-3.1854,-3.1899,-3.1915,-3.1941,-3.1943,-3.1957,-3.2012,-3.2038,-3.2079,-3.2094,-3.2097,-3.2159,-3.2151,-3.2139,-3.2114,-3.2165,-3.2188,-3.2197,-3.2079,-3.2078,-3.2078,-3.2077,0,0,-3.178,-3.183,-3.1842,-3.1863,-3.1902,-3.1935,-3.1979,-3.202,-3.2043,-3.2074,-3.2111,-3.2165,-3.2154,-3.2178,-3.2182,-3.2211,-3.2265,-3.2196,-3.2196,-3.2207,-3.2335,-3.2343,-3.2354,-3.2261,-3.2263,-3.2264,-3.2332,0,-3.1847,-3.1927,-3.1937,-3.2008,-3.2047,-3.2044,-3.2083,-3.211,-3.2124,-3.2158,-3.2172,-3.2211,-3.2194,-3.2208,-3.2236,-3.2252,-3.2291,-3.2248,-3.2295,-3.2296,-3.2287,-3.2366,-3.2375,-3.2438,-3.2341,-3.2342,-3.2343,0,-3.1936,-3.1971,-3.2046,-3.2079,-3.2096,-3.2131,-3.2169,-3.2202,-3.2232,-3.224,-3.2266,-3.2266,-3.2311,-3.2284,-3.2345,-3.2316,-3.2335,-3.2346,-3.2349,-3.2353,-3.2323,-3.2372,-3.2458,-3.2467,-3.2357,-3.2356,-3.2355,0,-3.1983,-3.2049,-3.2102,-3.2119,-3.216,-3.2184,-3.2202,-3.2231,-3.2255,-3.2287,-3.2303,-3.234,-3.236,-3.2388,-3.2398,-3.2378,-3.2459,-3.2433,-3.2465,-3.2465,-3.2483,-3.2482,-3.2572,-3.2496,-3.2495,-3.2495,-3.2495,0,-3.2057,-3.2103,-3.2124,-3.2157,-3.2208,-3.2218,-3.2267,-3.2284,-3.2309,-3.2344,-3.2343,-3.2375,-3.2387,-3.2421,-3.2429,-3.2478,-3.2487,-3.2494,-3.2495,-3.2494,-3.2493,-3.2507,-3.2503,-3.2498,-3.2497,-3.2497,-3.2496,0,-3.2118,-3.2135,-3.2192,-3.2226,-3.2235,-3.2272,-3.23,-3.233,-3.2343,-3.2387,-3.2398,-3.2418,-3.2458,-3.2471,-3.2519,-3.2524,-3.2581,-3.2579,-3.2571,-3.2572,-3.2604,-3.26,-3.2707,-3.2721,-3.2635,-3.2636,-3.2636,0,-3.2164,-3.22,-3.2237,-3.2261,-3.228,-3.2319,-3.2343,-3.2354,-3.2379,-3.2416,-3.2442,-3.2482,-3.2514,-3.2578,-3.2596,-3.2632,-3.2631,-3.2666,-3.2636,-3.2634,-3.2631,-3.2629,-3.2632,-3.2671,-3.2672,-3.2673,-3.2673,0,-3.2244,-3.225,-3.2286,-3.2325,-3.2355,-3.2386,-3.2415,-3.2434,-3.2449,-3.2477,-3.2519,-3.2544,-3.2593,-3.2632,-3.2669,-3.2685,-3.2682,-3.2682,-3.2692,-3.2691,-3.2685,-3.2688,-3.2586,-3.268,-3.2679,-3.2679,-3.2678,-3.2678,-3.2299,-3.233,-3.2362,-3.2402,-3.2425,-3.2453,-3.2484,-3.2501,-3.2536,-3.2577,-3.2581,-3.2625,-3.2654,-3.2703,-3.2721,-3.2755,-3.2745,-3.2759,-3.2763,-3.2766,-3.2768,-3.268,-3.2762,-3.2762,-3.2762,-3.2762,-3.2761,0,-3.2379,-3.2399,-3.2435,-3.2477,-3.2508,-3.2503,-3.2535,-3.2561,-3.2601,-3.2628,-3.266,-3.2707,-3.2745,-3.2766,-3.2803,-3.2826,-3.2825,-3.2835,-3.2834,-3.2837,-3.2775,-3.2763,-3.2835,-3.2835,-3.2835,-3.2835,-3.2835,-3.2835,-3.2424,-3.2476,-3.2486,-3.2549,-3.2568,-3.2613,-3.2632,-3.2656,-3.2678,-3.2731,-3.2763,-3.2777,-3.2801,-3.284,-3.2874,-3.2879,-3.2892,-3.2904,-3.2908,-3.2849,-3.2842,-3.2835,-3.2823,-3.2907,-3.2907,-3.2967,-3.2968,-3.2968]}]]